Home > Weather > Perm > Past weeks

Flag for Russia Weather for the Past 2 Weeks in Perm, Russia

Now
64 °F

Passing clouds.


Feels Like: 64 °F
Forecast: 43 / 65 °F
Wind: 3 mph from North

Location: Perm'/Bolshoe Savino

Current Time: May 5, 2016 at 12:51:50 PM

Latest Report: May 5, 2016 at 12:30 PM


Visibility: N/A

Pressure: 29.95 "Hg

Humidity: 37%

Dew Point: 37 °F

Location of PermLocation

Historic Weather in Perm — Graph

°F

Perm Temperature Yesterday

Maximum temperature yesterday: 66 °F (at 6:30 PM)
Minimum temperature yesterday: 45 °F (at 6:00 AM)
Average temperature yesterday: 56 °F

High & Low Weather Summary for the Past Weeks

 TemperatureHumidityPressure
High66 °F (May 1, 2:30 PM)100% (Apr 20, 11:00 AM)30.57 "Hg (Apr 20, 11:00 AM)
Low28 °F (Apr 29, 6:00 AM)18% (Apr 30, 7:00 PM)29.50 "Hg (Apr 20, 1:30 PM)
Average47 °F62%30.09 "Hg
* Reported Apr 20 11:00 AM — May 5 11:30 AM, Perm, Weather by CustomWeather, © 2016

Note: Actual official high and low records may vary slightly from our data, if they occured in-between our weather recording intervals... More about our weather records

Advertising

Perm Weather History for the Previous 24 Hours

Scroll right to see more
 ConditionsComfort  
Time TempWeatherWind HumidityBarometerVisibility
11:30 AM
Thu, May 5
61 °FSunny.1 mph45%29.95 "Hg10 mi
11:00 AM59 °FPassing clouds.3 mph48%29.95 "HgN/A
10:30 AM57 °FSunny.3 mph55%29.95 "Hg10 mi
10:00 AM55 °FPassing clouds.3 mph63%29.95 "HgN/A
9:30 AM54 °FPassing clouds.3 mph72%29.95 "HgN/A
9:00 AM52 °FSunny.1 mph72%29.95 "Hg10 mi
8:30 AM48 °FSunny.1 mph82%29.95 "Hg10 mi
8:00 AM46 °FSunny.3 mph87%29.95 "Hg10 mi
7:30 AM46 °FSunny.3 mph87%29.95 "Hg10 mi
7:00 AM43 °FSunny.1 mph93%29.95 "Hg10 mi
6:30 AM39 °FSunny.1 mph100%29.95 "Hg10 mi
6:00 AM39 °FClear.3 mph93%29.95 "Hg10 mi
5:30 AM41 °FClear.3 mph93%29.95 "Hg10 mi
5:00 AM41 °FClear.3 mph93%29.95 "Hg10 mi
4:30 AM41 °FClear.3 mph93%29.92 "Hg10 mi
4:00 AM41 °FClear.3 mph93%29.92 "Hg10 mi
3:30 AM41 °FClear.1 mph93%29.92 "Hg10 mi
3:00 AM39 °FPassing clouds.3 mph93%29.92 "HgN/A
2:30 AM43 °FClear.1 mph87%29.92 "Hg10 mi
2:00 AM45 °FClear.3 mph87%29.92 "Hg10 mi
1:00 AM48 °FClear.3 mph76%29.92 "Hg10 mi
12:00 AM52 °FClear.3 mph67%29.95 "Hg10 mi
11:00 PM
Wed, May 4
52 °FClear.1 mph67%29.95 "Hg10 mi
10:30 PM54 °FClear.3 mph63%29.95 "Hg10 mi
10:00 PM55 °FSunny.3 mph59%29.95 "Hg10 mi
9:30 PM59 °FSunny.3 mph48%29.92 "Hg10 mi
9:00 PM59 °FSunny.8 mph48%29.92 "Hg10 mi
8:30 PM59 °FSunny.8 mph48%29.92 "Hg10 mi
8:00 PM63 °FSunny.1 mph32%29.92 "Hg10 mi
7:30 PM64 °FPassing clouds.3 mph30%29.95 "HgN/A
7:00 PM64 °FPassing clouds.3 mph28%29.95 "HgN/A
6:30 PM66 °FPassing clouds.3 mph30%29.95 "HgN/A
6:00 PM64 °FPassing clouds.3 mph32%29.95 "HgN/A
5:30 PM64 °FSunny.6 mph34%29.95 "Hg10 mi
5:00 PM64 °FPassing clouds.6 mph37%29.95 "HgN/A
4:30 PM64 °FPassing clouds.6 mph34%29.98 "HgN/A
4:00 PM64 °FPassing clouds.6 mph34%29.98 "HgN/A
3:30 PM64 °FPassing clouds.3 mph34%29.98 "HgN/A
3:00 PM64 °FPassing clouds.3 mph34%29.98 "HgN/A
2:30 PM64 °FPassing clouds.3 mph34%29.98 "HgN/A
2:00 PM64 °FPassing clouds.3 mph34%29.98 "HgN/A
1:30 PM63 °FPassing clouds.6 mph37%30.01 "HgN/A
1:00 PM63 °FSunny.3 mph37%30.01 "Hg10 mi
12:30 PM63 °FPassing clouds.3 mph39%30.01 "HgN/A
12:00 PM61 °FSunny.1 mph39%30.01 "Hg10 mi
Weather by CustomWeather, © 2016

See weather overviewHow to use our weather pages